| time (UTC) | temp F | wind direction | speed knots | gust knots | rain 1hr in | rain 24hr in | rain mn in | humidity % | barometer mb |
| 20260505011556 | 75 | 238 | 4.3 | 8.7 | 0.00 | 0.00 | 0.00 | 58 | 998.7 |
| 20260505010047 | 76 | 256 | 0.9 | 6.1 | 0.00 | 0.00 | 0.00 | 54 | 998.0 |
| 20260505004546 | 77 | 259 | 0.0 | 5.2 | 0.00 | 0.00 | 0.00 | 52 | 998.1 |
| 20260505003045 | 77 | 263 | 1.7 | 5.2 | 0.00 | 0.00 | 0.00 | 50 | 998.5 |
| 20260505001545 | 78 | 263 | 2.6 | 7.8 | 0.00 | 0.00 | 0.00 | 50 | 998.5 |
| 20260505000054 | 79 | 275 | 1.7 | 5.2 | 0.00 | 0.00 | 0.00 | 48 | 998.3 |
| 20260504234548 | 79 | 254 | 2.6 | 7.0 | 0.00 | 0.00 | 0.00 | 46 | 998.1 |
| 20260504233102 | 80 | 257 | 3.5 | 7.8 | 0.00 | 0.00 | 0.00 | 41 | 998.2 |
| 20260504231543 | 82 | 255 | 6.1 | 11.3 | 0.00 | 0.00 | 0.00 | 39 | 998.3 |
| 20260504230042 | 83 | 223 | 5.2 | 14.8 | 0.00 | 0.00 | 0.00 | 40 | 998.4 |
| 20260504224541 | 83 | 288 | 5.2 | 13.0 | 0.00 | 0.00 | 0.00 | 40 | 998.4 |
| 20260504223055 | 83 | 252 | 7.0 | 14.8 | 0.00 | 0.00 | 0.00 | 40 | 998.5 |
| 20260504221539 | 83 | 293 | 7.0 | 13.9 | 0.00 | 0.00 | 0.00 | 39 | 998.5 |
| 20260504220037 | 83 | 277 | 7.0 | 14.8 | 0.00 | 0.00 | 0.00 | 40 | 998.4 |
| 20260504214535 | 83 | 249 | 7.0 | 15.6 | 0.00 | 0.00 | 0.00 | 41 | 998.3 |
| 20260504213046 | 83 | 264 | 6.1 | 13.0 | 0.00 | 0.00 | 0.00 | 43 | 998.5 |
| 20260504211534 | 82 | 239 | 7.0 | 13.9 | 0.00 | 0.00 | 0.00 | 42 | 998.6 |
| 20260504210030 | 82 | 245 | 7.8 | 13.0 | 0.00 | 0.00 | 0.00 | 42 | 998.6 |
| 20260504204539 | 82 | 235 | 7.0 | 16.5 | 0.00 | 0.00 | 0.00 | 42 | 998.7 |
| 20260504203026 | 81 | 221 | 7.8 | 14.8 | 0.00 | 0.00 | 0.00 | 43 | 999.0 |
| 20260504201521 | 81 | 243 | 6.1 | 17.4 | 0.00 | 0.00 | 0.00 | 44 | 999.2 |
| 20260504200021 | 81 | 229 | 7.0 | 10.4 | 0.00 | 0.00 | 0.00 | 45 | 999.3 |
| 20260504194517 | 80 | 217 | 6.1 | 14.8 | 0.00 | 0.00 | 0.00 | 46 | 999.4 |
| 20260504193016 | 80 | 221 | 6.1 | 11.3 | 0.00 | 0.00 | 0.00 | 45 | 999.6 |
| 20260504191511 | 79 | 239 | 6.1 | 13.0 | 0.00 | 0.00 | 0.00 | 45 | 999.7 |
| 20260504190008 | 79 | 290 | 4.3 | 12.2 | 0.00 | 0.00 | 0.00 | 47 | 999.8 |
| 20260504184506 | 78 | 290 | 5.2 | 13.0 | 0.00 | 0.00 | 0.00 | 46 | 1000.0 |
| 20260504183003 | 78 | 219 | 5.2 | 13.0 | 0.00 | 0.00 | 0.00 | 49 | 1000.0 |
| 20260504181502 | 77 | 190 | 5.2 | 15.6 | 0.00 | 0.00 | 0.00 | 48 | 1000.0 |
| 20260504180058 | 77 | 290 | 6.1 | 13.0 | 0.00 | 0.00 | 0.00 | 48 | 1000.1 |
| 20260504174609 | 77 | 239 | 4.3 | 14.8 | 0.00 | 0.00 | 0.00 | 49 | 1000.2 |
| 20260504173052 | 76 | 292 | 7.0 | 12.2 | 0.00 | 0.00 | 0.00 | 47 | 1000.4 |
| 20260504171553 | 76 | 259 | 8.7 | 13.9 | 0.00 | 0.00 | 0.00 | 48 | 1000.5 |
| 20260504081528 | 57 | 268 | 0.0 | 1.7 | 0.00 | 0.00 | 0.00 | 82 | 1004.3 |
| 20260504050004 | 59 | 275 | 0.0 | 0.0 | 0.00 | 0.00 | 0.00 | 70 | 1005.4 |
| 20260504044507 | 59 | 275 | 0.0 | 0.0 | 0.00 | 0.00 | 0.00 | 70 | 1005.7 |
| 20260504043003 | 60 | 275 | 0.0 | 0.0 | 0.00 | 0.00 | 0.00 | 71 | 1005.9 |
| 20260504041600 | 60 | 275 | 0.0 | 0.0 | 0.00 | 0.00 | 0.00 | 70 | 1006.1 |
| 20260504040116 | 61 | 275 | 0.0 | 0.0 | 0.00 | 0.00 | 0.00 | 68 | 1006.1 |
| 20260504034634 | 61 | 275 | 0.0 | 0.0 | 0.00 | 0.00 | 0.00 | 66 | 1006.3 |
| 20260504033059 | 62 | 275 | 0.0 | 0.0 | 0.00 | 0.00 | 0.00 | 63 | 1006.3 |
| 20260504031559 | 63 | 275 | 0.0 | 0.0 | 0.00 | 0.00 | 0.00 | 63 | 1006.4 |
| 20260504030121 | 64 | 275 | 0.0 | 0.0 | 0.00 | 0.00 | 0.00 | 60 | 1006.5 |
| 20260504024601 | 65 | 275 | 0.0 | 0.0 | 0.00 | 0.00 | 0.00 | 57 | 1006.4 |
| 20260504023057 | 65 | 275 | 0.0 | 0.0 | 0.00 | 0.00 | 0.00 | 55 | 1006.3 |
| 20260504021558 | 66 | 275 | 0.0 | 0.0 | 0.00 | 0.00 | 0.00 | 55 | 1006.2 |
| 20260504020107 | 68 | 275 | 0.0 | 0.0 | 0.00 | 0.00 | 0.00 | 53 | 1006.0 |
| 20260504014604 | 69 | 275 | 0.0 | 0.0 | 0.00 | 0.00 | 0.00 | 50 | 1006.1 |
| 20260504013056 | 70 | 275 | 0.0 | 0.0 | 0.00 | 0.00 | 0.00 | 47 | 1006.0 |